Wind_Speed
22 21 21 20 19 19 19 18 18 19 19 19 19 20 20 21 22 23 24 25 26 27 28 29 30 31 31 32 32 33 33 33 33 32 32 32 31 31 30 29 28 28 27
23 23 23 23 22 21 21 21 21 21 21 22 22 22 23 23 24 25 26 27 28 29 30 31 32 32 32 32 33 34 34 34 34 33 33 33 32 32 31 30 29 29 28
25 25 25 25 25 24 24 23 23 24 24 24 25 25 25 26 26 27 28 30 30 32 32 33 34 34 34 33 34 35 35 35 35 34 34 34 34 33 32 31 30 29 29
27 27 27 28 27 26 26 26 26 26 27 27 27 27 28 28 29 30 31 32 33 34 34 35 35 35 35 35 35 35 36 36 35 35 35 35 34 33 33 32 31 30 29
29 29 30 30 29 29 29 29 29 29 30 30 30 30 30 31 32 33 34 34 35 36 36 37 37 36 36 36 36 36 37 36 36 36 36 35 35 34 33 32 31 30 29
31 31 32 32 32 32 32 32 32 32 33 33 32 32 33 33 34 35 36 37 38 38 38 38 38 38 38 37 37 37 37 37 37 37 37 36 35 34 33 32 32 31 30
34 34 34 34 34 35 35 35 35 35 35 36 35 35 35 36 37 38 39 39 40 40 40 40 40 39 39 39 38 38 38 37 37 37 37 37 36 34 34 33 32 31 29
36 36 36 37 37 37 37 38 38 38 39 39 39 39 38 38 39 40 41 41 42 42 42 41 41 40 40 39 39 39 38 38 38 38 37 37 36 35 34 33 32 31 29
39 38 39 39 39 39 39 40 41 41 41 41 42 42 42 41 40 40 41 42 43 43 42 42 40 40 39 39 39 39 39 39 39 38 37 37 36 35 34 33 32 31 29
42 42 42 42 42 42 42 43 43 43 43 42 43 44 45 45 44 43 42 43 43 43 42 41 41 40 39 39 39 39 39 39 39 38 37 37 35 34 33 31 30 29 28
44 44 44 45 44 45 45 45 44 44 44 44 44 45 45 46 46 47 45 44 44 44 42 41 41 40 40 40 39 40 40 39 39 38 37 36 34 33 31 30 29 28 27
47 47 47 47 46 46 46 47 47 47 47 47 47 47 47 47 48 48 47 47 45 44 43 42 41 41 41 41 41 40 40 39 39 38 37 35 33 31 29 29 28 27 27
49 49 49 49 49 49 49 49 49 49 49 48 48 48 48 49 49 49 48 47 46 45 44 43 43 42 42 42 42 41 40 39 38 37 35 33 31 29 29 28 28 27 27
50 50 50 51 51 51 51 51 51 51 50 49 49 49 49 49 49 48 47 46 45 44 44 44 43 43 43 43 42 42 40 39 38 36 34 32 30 29 29 28 27 27 26
51 51 51 52 52 52 53 52 52 51 51 51 50 50 49 49 48 47 47 46 46 45 44 44 44 44 44 43 42 41 40 38 37 35 34 31 30 29 28 27 26 26 26
52 52 51 52 52 52 52 52 52 51 51 51 50 50 49 49 48 48 47 47 47 46 45 45 45 45 44 43 42 40 39 37 36 34 33 31 30 29 27 26 26 25 26
52 53 53 53 53 52 52 52 52 52 51 51 50 50 50 49 49 48 48 48 47 47 47 46 45 44 43 42 41 39 38 36 35 33 32 30 29 28 27 26 26 26 26
52 52 53 53 53 53 53 52 52 52 51 51 50 50 50 50 49 48 48 48 48 47 46 45 44 43 42 40 39 38 36 35 33 32 30 29 29 28 27 27 26 26 26
50 51 52 52 52 52 52 51 50 50 50 49 49 49 49 48 48 47 47 47 46 45 44 43 42 41 39 39 37 36 35 33 31 30 30 29 28 28 27 27 26 26 26
47 48 48 49 49 49 48 47 47 47 47 47 47 47 47 46 46 45 45 44 44 43 42 41 40 39 38 36 35 33 32 31 30 30 29 29 28 28 27 27 27 26 26
45 45 45 45 45 45 45 45 45 45 45 46 45 45 45 44 44 43 43 42 41 40 39 38 37 36 35 34 32 31 31 30 30 30 29 29 29 28 27 27 27 27 28
43 43 43 43 43 43 44 44 44 44 44 44 44 43 43 42 42 41 40 39 38 38 37 36 35 34 33 32 31 30 30 30 30 30 29 29 28 28 28 28 28 29 29
42 42 42 42 43 43 44 44 44 43 43 43 42 41 40 40 39 39 38 37 36 35 34 34 33 32 31 30 30 30 30 30 29 29 29 28 28 29 29 29 30 30 31
42 42 42 42 42 42 42 42 42 41 41 40 40 39 39 38 38 37 36 35 34 34 33 32 31 30 30 29 29 30 30 29 29 29 29 29 29 30 31 31 31 32 33
42 42 41 41 41 41 40 39 39 38 38 37 37 37 36 36 35 35 34 33 33 32 31 30 29 29 29 29 29 29 29 29 29 29 29 30 31 31 32 32 33 33 34
42 41 41 40 39 39 38 37 36 35 35 34 34 34 34 33 33 32 32 31 30 30 29 29 29 29 29 29 29 29 29 29 30 30 30 31 31 32 32 33 34 34 35
Wind_Direction
251 253 255 257 260 264 267 270 273 276 279 282 286 290 293 295 298 300 303 306 308 309 310 312 314 315 316 315 315 316 317 317 316 314 313 312 311 310 307 304 303 302 301
252 255 257 259 262 265 268 270 273 277 280 282 284 287 290 292 295 297 300 303 305 306 308 309 311 312 313 313 313 314 314 314 314 312 311 310 309 308 305 303 302 301 300
254 255 257 259 262 265 268 270 273 276 278 281 283 285 288 290 292 295 297 300 302 304 305 307 308 309 310 310 311 311 312 312 311 310 309 309 307 305 304 302 301 300 298
258 258 258 260 262 265 268 270 273 275 278 279 282 284 286 288 291 293 296 298 299 301 302 303 305 306 306 307 308 309 310 309 309 308 307 307 305 304 302 301 300 299 298
262 262 262 262 263 265 267 270 272 275 278 279 280 283 285 287 289 292 294 296 297 299 300 301 302 303 304 305 306 307 307 307 307 306 306 306 304 303 301 300 299 297 296
265 264 264 264 265 267 268 270 273 274 276 278 279 282 284 286 288 291 292 294 295 297 298 299 300 301 302 303 304 305 306 305 305 305 304 304 303 302 300 299 298 296 294
266 266 267 267 267 268 269 271 273 274 276 276 278 280 283 285 288 289 291 292 294 296 297 297 298 299 300 301 301 303 303 303 303 303 302 302 302 300 299 299 298 295 294
267 268 268 267 268 269 270 272 274 275 275 276 277 279 281 284 287 289 291 292 293 295 295 296 297 297 298 299 299 301 301 301 301 301 300 300 299 298 297 297 296 293 292
266 267 268 269 269 271 272 274 275 276 276 277 279 280 281 282 284 286 288 290 291 293 293 294 294 295 296 296 297 299 299 299 299 299 298 298 297 296 295 295 293 292 290
265 267 268 270 271 272 274 276 276 276 276 278 280 281 282 283 285 286 287 289 290 291 291 292 292 293 294 295 296 297 297 297 297 297 296 296 295 294 293 291 290 289 288
266 267 269 270 271 273 275 276 277 278 278 279 280 281 282 284 285 288 288 288 289 290 290 291 292 292 293 294 295 295 296 295 295 295 295 294 293 292 290 289 288 286 285
266 267 269 271 272 273 274 275 277 278 278 279 280 281 282 283 285 287 287 288 289 289 290 290 291 292 292 293 293 294 294 294 293 293 293 293 291 289 287 287 285 283 283
267 268 269 270 271 272 274 275 276 277 278 280 280 281 282 283 284 285 286 286 287 288 288 289 290 291 291 292 292 292 292 292 292 292 292 290 288 286 285 284 283 281 282
268 268 268 270 272 273 274 275 276 276 278 280 280 281 281 282 283 284 284 285 285 286 287 287 288 289 290 290 291 290 290 290 290 290 288 287 286 285 284 282 281 280 280
267 269 270 271 272 274 275 275 276 277 278 279 279 280 280 281 283 283 283 284 284 285 285 286 287 287 288 289 289 288 288 288 288 288 286 285 284 283 282 281 279 279 280
268 269 271 272 272 273 274 275 277 278 279 279 279 280 280 280 281 282 283 283 284 284 284 284 285 286 286 286 287 287 287 286 286 285 284 283 282 281 281 279 278 279 281
268 269 270 272 273 274 275 276 277 277 278 279 279 278 279 280 281 281 282 282 282 282 282 283 283 284 284 284 285 285 284 284 284 283 282 281 280 279 278 277 278 279 280
267 269 270 272 273 274 275 276 277 277 277 278 278 279 279 280 280 280 280 280 281 281 281 281 281 282 282 282 282 282 282 282 281 280 280 280 278 277 276 277 278 279 279
267 268 269 270 272 273 274 274 276 277 277 277 278 278 279 279 279 279 280 280 280 280 280 280 279 280 280 280 280 280 280 280 279 279 279 278 277 277 276 277 277 278 278
266 268 269 271 272 273 273 274 275 276 276 277 277 278 278 278 278 279 279 279 279 278 278 278 278 278 278 277 277 277 277 277 277 278 277 277 277 276 276 276 277 277 277
267 268 270 271 272 273 273 275 275 276 277 277 278 278 278 278 279 278 278 278 278 278 277 276 276 276 275 274 274 274 275 276 277 277 276 276 276 276 277 277 277 277 277
269 270 271 272 273 274 275 276 277 277 277 277 278 278 278 278 278 277 277 276 275 275 274 274 274 273 272 272 272 274 275 276 276 276 276 276 276 276 277 277 277 278 278
271 272 273 274 275 276 276 277 277 277 277 277 277 277 277 277 277 276 276 275 274 273 272 272 271 271 271 271 273 274 275 276 276 276 276 276 276 276 277 278 278 279 279
271 272 273 274 275 276 276 277 277 276 276 276 275 275 276 276 275 274 274 273 272 270 269 270 269 269 270 272 274 275 275 276 276 276 277 277 278 278 279 279 279 279 279
270 272 273 274 275 276 276 276 276 276 275 275 274 275 276 276 275 273 272 271 270 269 268 267 267 268 270 272 274 275 275 275 276 277 278 278 279 280 280 280 280 280 280
270 271 272 273 274 275 275 275 275 275 274 275 275 275 275 275 274 272 271 270 269 268 267 267 268 270 272 274 275 275 276 276 277 279 279 280 280 281 281 281 282 282 282
Height
5864 5865 5865 5866 5866 5866 5866 5866 5866 5865 5864 5864 5863 5861 5860 5859 5857 5856 5854 5852 5850 5847 5845 5842 5839 5836 5833 5829 5826 5822 5819 5815 5812 5808 5805 5801 5798 5795 5792 5789 5787 5784 5782
5859 5860 5861 5862 5862 5862 5862 5862 5861 5861 5860 5859 5858 5857 5856 5854 5853 5851 5849 5847 5845 5842 5840 5837 5834 5831 5828 5824 5820 5817 5813 5809 5806 5803 5799 5796 5792 5789 5786 5784 5781 5779 5777
5854 5855 5856 5857 5857 5857 5857 5857 5857 5856 5856 5855 5854 5852 5851 5849 5848 5846 5844 5842 5839 5837 5834 5831 5828 5825 5822 5818 5815 5811 5807 5803 5800 5796 5793 5789 5786 5783 5780 5777 5775 5773 5771
5849 5850 5850 5851 5852 5852 5852 5852 5851 5851 5850 5849 5848 5847 5846 5844 5842 5840 5838 5836 5833 5831 5828 5825 5822 5819 5815 5812 5808 5804 5801 5797 5793 5790 5786 5783 5780 5777 5774 5771 5769 5766 5764
5843 5843 5844 5845 5845 5846 5845 5845 5845 5844 5844 5843 5842 5841 5839 5838 5836 5833 5831 5829 5826 5824 5821 5818 5815 5812 5808 5805 5802 5798 5794 5790 5786 5783 5779 5776 5773 5770 5767 5765 5762 5760 5758
5836 5837 5837 5838 5838 5839 5839 5838 5838 5837 5837 5836 5835 5834 5832 5831 5828 5826 5824 5821 5819 5816 5814 5811 5808 5804 5801 5798 5794 5791 5787 5783 5779 5776 5772 5769 5766 5763 5760 5758 5755 5753 5751
5829 5829 5830 5830 5831 5831 5831 5831 5830 5830 5829 5828 5827 5827 5825 5823 5821 5819 5816 5814 5811 5808 5805 5802 5799 5796 5793 5790 5786 5783 5780 5776 5772 5769 5765 5762 5758 5755 5753 5750 5748 5746 5744
5821 5822 5822 5822 5822 5823 5823 5822 5822 5821 5820 5819 5818 5818 5818 5816 5813 5810 5807 5805 5802 5800 5797 5794 5791 5788 5785 5782 5778 5775 5772 5768 5764 5761 5758 5754 5751 5748 5745 5743 5740 5738 5736
5813 5813 5813 5814 5814 5814 5814 5813 5813 5812 5811 5810 5808 5807 5807 5806 5805 5803 5799 5796 5793 5791 5788 5785 5782 5780 5777 5773 5770 5767 5763 5760 5756 5753 5750 5747 5744 5741 5738 5735 5733 5731 5729
5804 5804 5804 5804 5804 5804 5804 5803 5803 5802 5801 5800 5799 5797 5796 5795 5794 5793 5790 5787 5784 5781 5779 5776 5773 5770 5767 5764 5761 5758 5755 5751 5748 5745 5742 5738 5736 5733 5730 5728 5726 5724 5722
5793 5794 5794 5794 5794 5794 5794 5793 5793 5792 5791 5790 5788 5787 5785 5784 5782 5780 5779 5777 5774 5771 5769 5766 5763 5760 5758 5755 5752 5749 5745 5742 5739 5736 5733 5730 5727 5725 5722 5720 5719 5717 5715
5783 5783 5783 5784 5784 5783 5783 5783 5782 5781 5780 5779 5778 5776 5775 5773 5771 5769 5767 5765 5763 5760 5758 5756 5753 5750 5747 5745 5742 5739 5736 5733 5730 5727 5724 5721 5719 5717 5715 5713 5711 5710 5708
5772 5772 5773 5773 5773 5772 5772 5772 5771 5770 5769 5768 5767 5765 5764 5762 5760 5758 5756 5754 5752 5750 5747 5745 5742 5740 5737 5734 5731 5729 5726 5723 5720 5718 5715 5713 5711 5709 5707 5705 5704 5702 5701
5761 5762 5761 5761 5761 5761 5760 5760 5759 5758 5757 5756 5755 5754 5752 5750 5748 5746 5744 5742 5741 5739 5737 5734 5732 5729 5726 5724 5721 5718 5716 5713 5711 5708 5706 5704 5702 5700 5699 5698 5696 5695 5694
5750 5750 5750 5750 5749 5749 5748 5748 5747 5746 5745 5744 5743 5741 5740 5738 5736 5735 5733 5731 5729 5727 5726 5723 5721 5718 5715 5713 5710 5708 5706 5703 5701 5699 5697 5695 5694 5692 5691 5690 5688 5687 5687
5738 5738 5738 5737 5737 5736 5736 5735 5735 5734 5733 5732 5730 5729 5728 5726 5725 5723 5721 5719 5717 5715 5714 5711 5709 5707 5704 5702 5700 5697 5696 5694 5692 5690 5688 5687 5685 5684 5683 5682 5681 5680 5679
5726 5726 5726 5725 5725 5724 5724 5723 5722 5722 5721 5719 5718 5717 5715 5714 5712 5711 5709 5707 5705 5703 5701 5699 5697 5695 5693 5691 5689 5687 5685 5684 5682 5680 5679 5678 5677 5676 5675 5674 5673 5672 5671
5714 5714 5713 5713 5712 5712 5711 5710 5710 5709 5708 5707 5705 5704 5703 5701 5700 5698 5696 5694 5692 5690 5689 5687 5685 5684 5682 5680 5679 5677 5676 5674 5673 5671 5670 5669 5668 5667 5666 5666 5665 5664 5664
5702 5701 5701 5700 5700 5699 5699 5698 5697 5696 5695 5694 5692 5691 5690 5688 5687 5685 5684 5682 5680 5678 5677 5676 5674 5673 5671 5670 5669 5667 5666 5665 5664 5663 5662 5661 5660 5659 5658 5658 5657 5656 5656
5689 5689 5688 5688 5688 5687 5686 5685 5685 5683 5682 5681 5680 5678 5677 5676 5674 5673 5671 5670 5668 5667 5665 5664 5663 5662 5661 5660 5659 5658 5657 5656 5655 5654 5653 5652 5651 5651 5650 5649 5649 5648 5648
5678 5677 5677 5676 5675 5675 5674 5673 5672 5671 5670 5669 5667 5666 5665 5664 5662 5661 5660 5658 5657 5656 5654 5653 5652 5652 5651 5650 5649 5648 5648 5647 5646 5645 5645 5644 5643 5642 5642 5641 5640 5640 5639
5666 5666 5665 5664 5664 5663 5662 5661 5660 5659 5658 5657 5655 5654 5653 5652 5650 5649 5648 5647 5646 5645 5644 5643 5642 5642 5641 5641 5640 5639 5639 5638 5638 5637 5636 5635 5634 5634 5633 5633 5632 5631 5631
5655 5655 5654 5653 5652 5651 5650 5649 5648 5647 5646 5645 5644 5643 5642 5640 5639 5638 5637 5636 5635 5634 5634 5633 5633 5632 5632 5631 5631 5631 5630 5629 5629 5628 5627 5627 5626 5625 5624 5624 5623 5622 5621
5644 5643 5643 5642 5641 5640 5639 5638 5636 5635 5634 5633 5632 5631 5631 5629 5628 5627 5626 5625 5625 5624 5624 5623 5623 5623 5623 5622 5622 5622 5621 5621 5620 5619 5618 5618 5617 5616 5615 5614 5613 5612 5611
5633 5632 5632 5631 5630 5629 5628 5626 5625 5624 5623 5622 5621 5621 5620 5619 5618 5617 5616 5616 5615 5615 5614 5614 5614 5614 5614 5613 5613 5613 5612 5612 5611 5610 5610 5609 5608 5607 5606 5605 5603 5602 5601
5622 5621 5620 5620 5619 5618 5617 5616 5615 5614 5613 5612 5611 5610 5610 5609 5608 5607 5607 5607 5606 5606 5606 5606 5605 5605 5605 5605 5604 5604 5603 5603 5602 5601 5600 5599 5598 5597 5596 5594 5593 5591 5590